Back to catalog

STARLINK-1216

AliveCommunicationsVLEO
NORAD 45185·PAYLOAD·🇺🇸 United States

Launched Feb 17, 2020 from Cape Canaveral Space Force Station

Loading…

Next Passes (next 24 hours)

TLE

FreshSource: CelesTrak SupGP

Epoch: Sep 14, 2026, 13:45 UTC

1 45185C 20012H   26257.57340278 -.00019753  00000+0 -41129-3 0  2579
2 45185  53.1530 233.2176 0002964  44.8134  18.7096 15.45022408    14

Track STARLINK-1216 in real time with AllMySat

Download on the App Store